User: anonymous
Location: Unspecified
(0.0000°N, 0.0000°E)
Time: 22:29:41
(UTC+02:00)
Language:

CZ-4B R/B - Orbit

View from above orbital plane
View from above orbital plane
View from above satellite
View from above satellite

Ground track
Ground track

The orbit data is extracted from the following two-line orbital elements,

1 33410U 08053C   14209.02831499  .00001085  00000-0  91048-4 0  8763
2 33410 097.5888 185.0467 0131717 129.0248 232.2786 14.93908176312942
Epoch (UTC): 28 July 2014 00:40:46
Eccentricity: 0.0131717
inclination: 97.5888°
perigee height: 494 km
apogee height: 677 km
right ascension of ascending node: 185.0467°
argument of perigee: 129.0248°
revolutions per day: 14.93908176
mean anomaly at epoch: 232.2786°
orbit number at epoch: 31294

The dashed part of the orbit path shows where the satellite is in the earth's shadow,  

DLR